Tracking 19709 objects as of 19-Jun-2019
HD Live streaming from Space Station
objects crossing your sky now

DELTA 1 DEB

Track DELTA 1 DEB now!
10-day predictions


NORAD ID: 7169
Int'l Code: 1973-086EH
Perigee: 1,296.9 km
Apogee: 1,503.1 km
Inclination: 101.7 °
Period: 113.6 minutes
Semi major axis: 7771 km
RCS: 0.0854 m2 (small)
Launch date: November 6, 1973
Source: United States (US)
Launch site: AIR FORCE WESTERN TEST RANGE (AFWTR)

Note: This is SATELLITE DEBRIS
aabbcc
Your satellite tracking list
Your tracking list is empty




NASA's NSSDC Master Catalog

Two Line Element Set (TLE):
1  7169U 73086EH  19169.06821403 +.00000189 +00000-0 +11834-2 0  9994
2  7169 101.6522 201.7964 0132680 145.4235 272.2869 12.67322243105504
Source of the keplerian elements: AFSPC